Regional Weather Roundup
Issued by NWS

Home | Current Version | Previous Version | Graphics & Text | Print | Product List | Glossary On
Versions: 1 2 3 4 5 6 7 8 9 10 11 12 13 14 15 16 17 18 19 20 21 22 23 24 25 26 27 28 29 30 31 32 33 34 35 36 37 38 39 40 41 42 43 44 45 46 47 48 49 50
000
ASUS43 KLOT 241709
RWRIL

ILLINOIS REGIONAL WEATHER ROUNDUP
NATIONAL WEATHER SERVICE CHICAGO/ROMEOVILLE IL
1200 PM CDT SUN SEP 24 2017

NOTE: "FAIR" INDICATES FEW OR NO CLOUDS BELOW 12,000 FEET WITH NO
SIGNIFICANT WEATHER AND/OR OBSTRUCTIONS TO VISIBILITY.

* THESE STATIONS ARE NOT UNDER NWS QUALITY CONTROL. THEY ALSO MAY NOT
  REPORT WEATHER SUCH AS PRECIPITATION OR FOG.

ILZ001-002-007-009-015-016-024-241800-
NORTHWEST ILLINOIS

CITY           SKY/WX    TMP DP  RH WIND       PRES   REMARKS
MOLINE         SUNNY     87  65  47 S7        30.03F HX  89
STERLING*      SUNNY     87  64  46 VRB6      30.06F HX  88
SAVANNA*       SUNNY     86  62  43 S8        30.05F HX  87
$$

ILZ003-004-008-010-011-017-018-241800-
NORTH CENTRAL ILLINOIS

CITY           SKY/WX    TMP DP  RH WIND       PRES   REMARKS
ROCKFORD       SUNNY     86  61  42 S14G22    30.08F HX  86
FREEPORT*      SUNNY     85  63  46 SE9       30.08F HX  86
ROCHELLE*      SUNNY     85  62  45 S9        30.09S HX  86
DE KALB*       SUNNY     86  64  47 S14       30.10F HX  87
PERU*          SUNNY     85  63  47 S9        30.07F HX  85
$$

ILZ005-006-012>014-019>023-241800-
NORTHEAST ILLINOIS

CITY           SKY/WX    TMP DP  RH WIND       PRES   REMARKS
CHICAGO-OHARE  MOSUNNY   89  62  40 SW9       30.08F HX  89
CHICAGO-MIDWAY MOSUNNY   89  62  40 SW7       30.08F HX  89
AURORA         SUNNY     86  66  51 S13       30.09F HX  88
LANSING*       SUNNY     86  67  52 CALM      30.09F HX  89
JOLIET*        SUNNY     88  65  47 S6        30.09S HX  90
WAUKEGAN       SUNNY     88  65  46 VRB7      30.08F HX  90
DUPAGE AIRPORT SUNNY     86  64  47 S12       30.08F HX  87
KANKAKEE*      SUNNY     86  65  48 S6        30.09F HX  87
WHEELING       SUNNY     89  63  41 S10       30.09F HX  90
MORRIS*        SUNNY     87  63  45 S5        30.07F HX  87
ROMEOVILLE*    SUNNY     88  64  44 S10       30.09S HX  89
NORTHERLY ISL    N/A     80  66  62 NE1         N/A  HX  82
$$

LMZ740>746-241800-
SOUTHERN LAKE MICHIGAN

STATION/POSITION SKY/WX   TEMP    WIND        PRES    VSBY  WAVE
                          AIR SEA DIR/SP/G                  HT/PER
                          (F)     (DEG/KT/KT) (MB)    (MI)  (FT/S)
SOUTHERN BUOY              72 71  170/  6/  6 1019.4          1/ 3
WILMETTE HARBOR            74 71  120/  6/  8   N/A           1
HARRISON CRIB              80     130/  8/  8   N/A
BURNHAM HARBOR             81                   N/A
CALUMET HARBOR             80      60/  7/  8 1018.3F
BURNS HARBOR               85     170/  5/ 12 1019.3F
MICHIGAN CITY              84     140/  4/  6   N/A
MICHIGAN CITY 6N           80 72  150/  2/  2   N/A           0
ST. JOSEPH                 80 73  220/  2/  2 1018.9          0
$$

ILZ025>027-034>036-040-047-049-050-058-095>099-241800-
WEST-CENTRAL ILLINOIS

CITY           SKY/WX    TMP DP  RH WIND       PRES   REMARKS
QUINCY         SUNNY     87  64  46 S8        30.03F HX  88
GALESBURG*     SUNNY     85  65  51 S6        30.06F HX  87
MACOMB*        SUNNY     87  64  44 SW8       30.07F HX  88
JACKSONVILLE*  MOSUNNY   87  64  45 SE3       30.05F HX  89
PITTSFIELD*    MOSUNNY   88  65  46 S6        30.05F HX  90
$$

ILZ028>032-037-038-041>044-048-051>054-059>061-241800-
CENTRAL ILLINOIS

CITY           SKY/WX    TMP DP  RH WIND       PRES   REMARKS
PONTIAC        SUNNY     88  64  44 S8        30.09F HX  89
BLOOMINGTON    SUNNY     85  65  51 CALM      30.09F HX  86
DECATUR        SUNNY     87  63  44 VRB5      30.07F HX  88
PEORIA         SUNNY     86  67  52 SW8       30.06F HX  89
LACON*         SUNNY     86  66  51 S7        30.05F HX  89
LINCOLN*       PTSUNNY   88  67  51 S6        30.06F HX  91
SPRINGFIELD    MOSUNNY   89  67  47 VRB5      30.06F HX  92
TAYLORVILLE    SUNNY     88  65  46 E7        30.06F HX  89
$$

ILZ033-039-045-046-055>057-062-063-241800-
EAST-CENTRAL ILLINOIS

CITY           SKY/WX    TMP DP  RH WIND       PRES   REMARKS
CHAMPAIGN      SUNNY     88  60  38 S5        30.08F HX  87
RANTOUL*       SUNNY     88  64  45 SW5       30.08F HX  89
MATTOON        SUNNY     87  64  46 VRB6      30.06F HX  88
PARIS*         SUNNY     88  63  42 CALM      30.08F HX  89
$$

ILZ079-100>102-241800-
SOUTHWEST ILLINOIS

CITY           SKY/WX    TMP DP  RH WIND       PRES   REMARKS
ALTON          MOSUNNY   84  70  61 SE6       30.05F HX  88
BELLEVILLE     SUNNY     89  67  48 CALM      30.03F HX  92
CAHOKIA*       MOSUNNY   90  66  45 VRB6      30.03F HX  92
SPARTA*        MOSUNNY   87  67  50 E6        30.05F HX  90
$$

ILZ064>066-069>071-074>076-080>082-084>086-088>090-092>094-241800-
SOUTH-CENTRAL ILLINOIS

CITY           SKY/WX    TMP DP  RH WIND       PRES   REMARKS
CARBONDALE     SUNNY     87  69  54 CALM      30.04F HX  91
CAIRO*         SUNNY     85  73  67 CALM      30.03F HX  91
EFFINGHAM*     SUNNY     88  63  42 CALM      30.07F HX  89
MARION         SUNNY     90  68  48 SE8       30.05F HX  93
MT. VERNON       N/A     88  67  49 E5        30.05F HX  91
CENTRALIA*     MOSUNNY   91  68  46 S5        30.04F HX  95
SALEM*         SUNNY     88  64  44 CALM      30.05F HX  89
METROPOLIS*    LGT RAIN  88  69  54 CALM      30.04F HX  92
$$

ILZ067-068-072-073-078-083-087-091-241800-
SOUTHEAST ILLINOIS

CITY           SKY/WX    TMP DP  RH WIND       PRES   REMARKS
LAWRENCEVILLE  SUNNY     88  65  46 SE5       30.06F HX  90
FLORA*         SUNNY     89  64  44 N5        30.05F HX  90
FAIRFIELD*     SUNNY     89  60  38 CALM      30.04F HX  88
HARRISBURG*    PTSUNNY   89  67  47 E5        30.04F HX  92
ROBINSON*      SUNNY     87  64  46 SE5       30.07F HX  88
CARMI*         SUNNY     90  63  40 NE6       30.04F HX  90
$$

ABBREVIATIONS USED IN REMARKS
   TC - TEMPERATURE IN CELSIUS
  WCI - WIND CHILL INDEX
   HX - HEAT INDEX
  VSB - VISIBILITY
$$




USA.gov is the U.S. government's official web portal to all federal, state and local government web resources and services.